Columbus, OH

11:41 PM EST on December 10, 2017 (GMT -0500)
Port Columbus International

Weather History for KCMH - May, 2014

Change the Weather History Date:

Thursday, May 1, 2014

  Actual Average Record
Temperature  
Mean Temperature 55 °F 58 °F  
Max Temperature 60 °F 69 °F 88 °F (1942)
Min Temperature 49 °F 48 °F 30 °F (1963)
Degree Days  
Heating Degree Days 10 8  
Month to date heating degree days 10 8  
Since 1 July heating degree days 5531 5090  
Cooling Degree Days 0 1  
Month to date cooling degree days 0 1  
Year to date cooling degree days 8 13  
Growing Degree Days 4 (Base 50)    
Moisture  
Dew Point 39 °F    
Average Humidity 60    
Maximum Humidity 83    
Minimum Humidity 37    
Precipitation  
Precipitation 0.00 in 0.12 in 2.07 in (1893)
Month to date precipitation 0.00 0.12  
Year to date precipitation 12.85 11.52  
Snow  
Snow 0.00 in 0.00 in 0.00 in ()
Month to date snowfall 0.0 0.0  
Since 1 July snowfall 56.4 26.7  
Snow Depth 0.00 in    
Sea Level Pressure  
Sea Level Pressure 29.86 in    
Wind  
Wind Speed 12 mph (WSW)    
Max Wind Speed 24 mph    
Max Gust Speed 29 mph    
Visibility 10 miles    
Events      
T = Trace of Precipitation, MM = Missing Value Source: NWS Daily Summary

Daily Weather History Graph

Daily Weather History Graph

Search for Another Location

Airport or City:

Trip Planner

Search our weather history database for the weather conditions in past years. The results will help you decide how hot, cold, wet, or windy it might be!

Date:

Astronomy

May. 01, 2014 Rise Set
Actual Time 6:31 AM EDT 8:26 PM EDT
Civil Twilight 6:02 AM EDT 8:55 PM EDT
Nautical Twilight 5:26 AM EDT 9:31 PM EDT
Astronomical Twilight 4:48 AM EDT 10:10 PM EDT
Moon 8:18 AM EDT (5/1) 10:58 PM EDT (5/1)
Length of Visible Light 14h 53m
Length of Day
13h 54m
Waxing Crescent, 6% of the Moon is Illuminated
May 1
Waxing Crescent
May 6
First Quarter
May 14
Full
May 21
Last Quarter
May 28
New

Hourly Weather History & Observations

Time (EDT) Temp. Dew Point Humidity Pressure Visibility Wind Dir Wind Speed Gust Speed Precip Events Conditions
12:51 AM 55.0 °F 46.9 °F 74% 29.86 in 10.0 mi WNW 11.5 mph - N/A   Overcast
1:35 AM 53.6 °F 46.4 °F 77% 29.86 in 10.0 mi West 11.5 mph - N/A   Overcast
1:51 AM 54.0 °F 46.0 °F 75% 29.86 in 10.0 mi WNW 9.2 mph - N/A   Overcast
2:51 AM 52.0 °F 46.0 °F 80% 29.85 in 10.0 mi WNW 8.1 mph - N/A   Mostly Cloudy
3:18 AM 51.8 °F 44.6 °F 76% 29.85 in 10.0 mi West 6.9 mph - N/A   Scattered Clouds
3:51 AM 50.0 °F 44.1 °F 80% 29.85 in 10.0 mi West 4.6 mph - N/A   Mostly Cloudy
4:51 AM 51.1 °F 45.0 °F 80% 29.85 in 10.0 mi West 3.5 mph - N/A   Overcast
5:01 AM 51.8 °F 44.6 °F 76% 29.85 in 10.0 mi WSW 5.8 mph - N/A   Overcast
5:28 AM 51.8 °F 39.2 °F 62% 29.85 in 10.0 mi WSW 9.2 mph - N/A   Overcast
5:51 AM 50.0 °F 37.9 °F 63% 29.85 in 10.0 mi West 9.2 mph - N/A   Overcast
6:51 AM 48.9 °F 37.0 °F 64% 29.86 in 10.0 mi West 8.1 mph - N/A   Mostly Cloudy
7:51 AM 50.0 °F 37.0 °F 61% 29.88 in 10.0 mi WSW 8.1 mph - N/A   Overcast
8:51 AM 50.0 °F 37.0 °F 61% 29.89 in 10.0 mi WSW 10.4 mph - N/A   Mostly Cloudy
9:51 AM 52.0 °F 37.9 °F 59% 29.89 in 10.0 mi SW 10.4 mph - N/A   Scattered Clouds
10:51 AM 55.9 °F 37.9 °F 51% 29.87 in 10.0 mi SW 13.8 mph 24.2 mph N/A   Scattered Clouds
11:51 AM 55.0 °F 37.9 °F 53% 29.86 in 10.0 mi SSW 12.7 mph 21.9 mph N/A   Overcast
12:51 PM 57.9 °F 39.0 °F 49% 29.86 in 10.0 mi SSW 18.4 mph 25.3 mph N/A   Mostly Cloudy
1:51 PM 57.0 °F 34.0 °F 42% 29.85 in 10.0 mi WSW 20.7 mph 27.6 mph N/A   Overcast
2:51 PM 57.9 °F 33.1 °F 39% 29.85 in 10.0 mi WSW 20.7 mph 27.6 mph N/A   Overcast
3:51 PM 59.0 °F 34.0 °F 39% 29.84 in 10.0 mi SW 11.5 mph 26.5 mph N/A   Mostly Cloudy
4:51 PM 57.9 °F 34.0 °F 41% 29.85 in 10.0 mi SW 15.0 mph 25.3 mph N/A   Overcast
5:51 PM 57.9 °F 35.1 °F 42% 29.85 in 10.0 mi WSW 12.7 mph - N/A   Overcast
6:51 PM 57.9 °F 35.1 °F 42% 29.85 in 10.0 mi WSW 12.7 mph - N/A   Overcast
7:51 PM 57.0 °F 36.0 °F 45% 29.86 in 10.0 mi WSW 10.4 mph - N/A   Overcast
8:51 PM 55.9 °F 35.1 °F 45% 29.87 in 10.0 mi WSW 12.7 mph 17.3 mph N/A   Overcast
9:51 PM 55.0 °F 36.0 °F 49% 29.87 in 10.0 mi WSW 8.1 mph - N/A   Overcast
10:51 PM 54.0 °F 37.0 °F 53% 29.86 in 10.0 mi West 9.2 mph - N/A   Overcast
11:51 PM 53.1 °F 37.0 °F 55% 29.87 in 10.0 mi West 12.7 mph - N/A   Overcast